[[{"header":{"parameterUnit":"m.s-1","parameterCategory":1,"la1":30.2991,"la2":30.254,"lo1":-89.0895,"lo2":-89.0444,"dy":0.0017,"dx":0.0017,"nx":28,"ny":28,"refTime":"2025-04-28T09:00:00:Z","depth":0,"parameterNumber":2,"parameterNumberName":"U-component_of_WINDS"},"data":[0,0,0,0,0,0,0,0,0,0,0,0,0,0,0,0,0,0,0,0,0,0,0,0,0,0,0,0,0,0,0,0,0,0,0,0,0,0,0,0,0,0,0,0,0,0,0,0,0,0,0,0,0,0,0,0,0,0,-2.1213,-2.1213,0,-2.1305,-2.1306,-2.1307,-2.1323,-2.1322,-2.1322,-2.1321,-2.1412,-2.1415,-2.1419,0,0,0,0,0,0,0,0,0,0,0,0,0,-2.1049,-2.1052,-2.1212,-2.1214,-2.1215,-2.1304,-2.1306,-2.1307,-2.1323,-2.1322,-2.1322,-2.1321,-2.1411,-2.1415,-2.1419,0,0,0,0,0,0,0,0,0,0,0,0,0,-2.1129,-2.1053,-2.1212,-2.1234,-2.1237,-2.1304,-2.1306,-2.1307,-2.1324,-2.1322,-2.1321,-2.132,-2.141,-2.1415,-2.1419,-2.1471,0,0,-2.1434,-2.1436,0,0,0,0,0,0,0,0,-2.1124,-2.1134,-2.1229,-2.1232,-2.1236,-2.1301,-2.1282,-2.1362,-2.1324,-2.129,-2.1321,-2.132,-2.1376,-2.1384,-2.1403,-2.1475,-2.1479,-2.1434,-2.1437,-2.1439,-2.144,0,0,0,0,0,0,0,-2.1119,-2.1131,-2.1249,-2.1231,-2.1235,-2.1238,-2.1248,-2.1297,-2.1338,-2.1293,-2.1295,-2.1306,-2.1378,-2.1399,-2.1406,-2.148,-2.1434,-2.1438,-2.1441,-2.1443,-2.1601,-2.1602,0,0,0,0,0,0,-2.1109,-2.1126,-2.1246,-2.1252,-2.1176,-2.1242,-2.1253,-2.1281,-2.1338,-2.1346,-2.1306,-2.1306,-2.1391,-2.14,-2.1409,-2.1473,-2.1439,-2.1443,-2.1446,-2.1599,-2.1601,-2.1602,0,0,0,0,0,0,-2.1106,-2.112,-2.1242,-2.1189,-2.1205,-2.1246,-2.1277,-2.1284,-2.1305,-2.1348,-2.1355,-2.132,-2.1391,-2.1402,-2.1456,-2.1477,-2.1446,-2.145,-2.1598,-2.16,-2.1602,-2.1602,0,0,0,0,0,0,-2.1101,-2.1119,-2.1139,-2.119,-2.1208,-2.1288,-2.1279,-2.1286,-2.1313,-2.1313,-2.1363,-2.137,-2.1391,-2.1449,-2.146,-2.1483,-2.1453,-2.1596,-2.1599,-2.1601,-2.1601,-2.1604,-2.1607,0,0,0,0,0,-2.1095,-2.1134,-2.114,-2.1154,-2.1234,-2.1289,-2.1299,-2.1323,-2.1315,-2.1335,-2.1363,-2.1368,-2.1473,-2.1454,-2.1467,-2.1491,-2.1595,-2.1598,-2.1601,-2.1599,-2.1603,-2.1607,0,0,0,0,0,0,-2.1083,-2.1141,-2.1148,-2.1205,-2.1242,-2.1292,-2.1318,-2.1327,-2.1366,-2.1365,-2.1392,-2.1403,-2.1455,-2.1479,-2.1457,-2.1545,-2.1533,-2.1539,-2.1527,-2.1532,-2.1535,-2.1528,-2.1457,0,0,0,0,0,-2.1088,-2.1128,-2.1177,-2.1222,-2.1241,-2.1276,-2.1301,-2.1317,-2.1356,-2.1371,-2.1403,-2.144,-2.1482,-2.1508,-2.1549,-2.1605,-2.1616,-2.1628,-2.1631,-2.1634,-2.1638,-2.167,-2.1676,-2.1612,-2.1612,-2.1612,0,0,-2.1096,-2.1133,-2.1157,-2.1221,-2.1251,-2.1292,-2.1289,-2.1332,-2.1363,-2.1378,-2.143,-2.1455,-2.1499,-2.1554,-2.158,-2.1575,-2.1658,-2.1637,-2.1639,-2.1642,-2.1674,-2.168,-2.1685,-2.1614,-2.1614,-2.1614,0,0,-2.1133,-2.1165,-2.1207,-2.1238,-2.1285,-2.1309,-2.1319,-2.1369,-2.1386,-2.144,-2.1452,-2.1489,-2.1559,-2.159,-2.1615,-2.1666,-2.1672,-2.1678,-2.1695,-2.1726,-2.1731,-2.1735,-2.1753,-2.1759,-2.1683,-2.1683,-2.1683,0,-2.1137,-2.12,-2.1227,-2.127,-2.1298,-2.1315,-2.1358,-2.1387,-2.1444,-2.1463,-2.1457,-2.1547,-2.1577,-2.164,-2.1653,-2.1673,-2.1685,-2.1672,-2.1728,-2.1733,-2.1737,-2.1755,-2.1762,-2.1683,-2.1683,-2.1683,-2.1683,0,-2.1203,-2.1247,-2.1275,-2.1332,-2.1363,-2.1405,-2.1438,-2.1467,-2.148,-2.1505,-2.156,-2.1597,-2.1646,-2.1662,-2.1675,-2.1728,-2.1723,-2.1723,-2.1711,-2.1743,-2.176,-2.1767,-2.1684,-2.1683,-2.1683,-2.1683,0,0,-2.1233,-2.1306,-2.1315,-2.1342,-2.1396,-2.143,-2.1474,-2.1523,-2.1547,-2.1586,-2.1623,-2.1684,-2.1684,-2.1712,-2.1729,-2.1756,-2.1795,-2.1753,-2.1754,-2.1759,-2.1855,-2.1854,-2.1862,-2.18,-2.1801,-2.1802,-2.1851,0,-2.1275,-2.1355,-2.1381,-2.1447,-2.1487,-2.1505,-2.1544,-2.1581,-2.1605,-2.1643,-2.167,-2.1713,-2.171,-2.1727,-2.1755,-2.1784,-2.1814,-2.1781,-2.1834,-2.1835,-2.1821,-2.1871,-2.187,-2.1914,-2.1858,-2.1859,-2.186,0,-2.1335,-2.1377,-2.1447,-2.1498,-2.1516,-2.155,-2.1598,-2.1634,-2.1677,-2.1693,-2.1726,-2.1741,-2.1787,-2.1775,-2.1839,-2.1816,-2.1839,-2.1857,-2.1859,-2.1864,-2.1849,-2.1876,-2.1929,-2.1935,-2.1871,-2.187,-2.1869,0,-2.1349,-2.1424,-2.1476,-2.1498,-2.1558,-2.1582,-2.1608,-2.165,-2.1678,-2.172,-2.1738,-2.1784,-2.1809,-2.1845,-2.1872,-2.186,-2.1934,-2.1923,-2.1948,-2.1947,-2.1961,-2.196,-2.2018,-2.1978,-2.1978,-2.1978,-2.1978,0,-2.1393,-2.1435,-2.1483,-2.1514,-2.1562,-2.1593,-2.1639,-2.1666,-2.1704,-2.1741,-2.1759,-2.1794,-2.1828,-2.1867,-2.1889,-2.1939,-2.195,-2.1964,-2.1969,-2.1962,-2.196,-2.1977,-2.1974,-2.198,-2.1979,-2.1979,-2.1979,0,-2.1416,-2.145,-2.1508,-2.1561,-2.1576,-2.1608,-2.1654,-2.1685,-2.1712,-2.1758,-2.1771,-2.1812,-2.1859,-2.189,-2.195,-2.1965,-2.2019,-2.2024,-2.2004,-2.2007,-2.203,-2.2027,-2.2099,-2.211,-2.2064,-2.2064,-2.2065,0,-2.1442,-2.1475,-2.1533,-2.1559,-2.1586,-2.1629,-2.1658,-2.169,-2.172,-2.1772,-2.1798,-2.1846,-2.1886,-2.1961,-2.1995,-2.2041,-2.2047,-2.2069,-2.2054,-2.2046,-2.2047,-2.2044,-2.2047,-2.2071,-2.2071,-2.2072,-2.2072,0,-2.1483,-2.1499,-2.1541,-2.159,-2.1625,-2.1664,-2.1704,-2.1725,-2.1763,-2.1796,-2.1845,-2.1876,-2.1938,-2.1986,-2.2036,-2.2062,-2.2074,-2.2077,-2.2085,-2.2077,-2.2065,-2.2072,-2.201,-2.2075,-2.2074,-2.2074,-2.2074,-2.2074,-2.1508,-2.1539,-2.1585,-2.1631,-2.1665,-2.1702,-2.1734,-2.1766,-2.1807,-2.1861,-2.1877,-2.1928,-2.1972,-2.204,-2.2068,-2.2108,-2.2105,-2.2117,-2.212,-2.2122,-2.2122,-2.206,-2.2117,-2.2117,-2.2117,-2.2117,-2.2117,0,-2.155,-2.1581,-2.1624,-2.168,-2.1717,-2.1726,-2.1771,-2.1801,-2.1846,-2.1886,-2.1926,-2.1983,-2.203,-2.2069,-2.2118,-2.2142,-2.2149,-2.2154,-2.2152,-2.2158,-2.2121,-2.2109,-2.2148,-2.2148,-2.2148,-2.2148,-2.2148,-2.2148,-2.1576,-2.1629,-2.165,-2.172,-2.175,-2.1801,-2.1826,-2.186,-2.1893,-2.1955,-2.1995,-2.2021,-2.2061,-2.2113,-2.2157,-2.2167,-2.2184,-2.2188,-2.2199,-2.2164,-2.216,-2.2157,-2.2146,-2.2192,-2.2192,-2.2233,-2.2233,-2.2233]},{"header":{"parameterUnit":"m.s-1","parameterCategory":1,"la1":30.2991,"la2":30.254,"lo1":-89.0895,"lo2":-89.0444,"dy":0.0017,"dx":0.0017,"nx":28,"ny":28,"refTime":"2025-04-28T09:00:00:Z","depth":0,"parameterNumber":3,"parameterNumberName":"V-component_of_WINDS"},"data":[0,0,0,0,0,0,0,0,0,0,0,0,0,0,0,0,0,0,0,0,0,0,0,0,0,0,0,0,0,0,0,0,0,0,0,0,0,0,0,0,0,0,0,0,0,0,0,0,0,0,0,0,0,0,0,0,0,0,1.1769,1.1769,0,1.1798,1.1798,1.1799,1.1785,1.1784,1.1784,1.1783,1.1811,1.1812,1.1814,0,0,0,0,0,0,0,0,0,0,0,0,0,1.1701,1.1703,1.1769,1.1769,1.177,1.1798,1.1798,1.1799,1.1785,1.1784,1.1784,1.1783,1.181,1.1812,1.1814,0,0,0,0,0,0,0,0,0,0,0,0,0,1.173,1.1703,1.1769,1.1767,1.1767,1.1798,1.1798,1.1799,1.1786,1.1784,1.1783,1.1782,1.181,1.1812,1.1814,1.1849,0,0,1.182,1.1821,0,0,0,0,0,0,0,0,1.1729,1.1733,1.1767,1.1767,1.1767,1.1787,1.1785,1.1815,1.1786,1.1778,1.1783,1.1782,1.1804,1.1806,1.1814,1.185,1.1851,1.1821,1.1822,1.1823,1.1823,0,0,0,0,0,0,0,1.1727,1.1732,1.178,1.1767,1.1767,1.1764,1.1767,1.179,1.1797,1.1779,1.1778,1.1782,1.1804,1.1812,1.1814,1.1852,1.1821,1.1822,1.1824,1.1825,1.1918,1.1919,0,0,0,0,0,0,1.1725,1.173,1.1779,1.1781,1.1745,1.1766,1.1769,1.1782,1.1796,1.1798,1.1783,1.1781,1.1809,1.1812,1.1815,1.1857,1.1823,1.1825,1.1826,1.1917,1.1918,1.192,0,0,0,0,0,0,1.1724,1.173,1.1778,1.1755,1.1761,1.1768,1.1782,1.1783,1.1791,1.1799,1.18,1.179,1.1808,1.1812,1.1841,1.1858,1.1826,1.1828,1.1915,1.1917,1.1919,1.1941,0,0,0,0,0,0,1.1722,1.1729,1.1743,1.1756,1.1763,1.1804,1.1783,1.1784,1.1795,1.1793,1.1806,1.1808,1.1808,1.1838,1.1843,1.186,1.1829,1.1914,1.1916,1.1918,1.1939,1.1943,1.1947,0,0,0,0,0,1.1719,1.1747,1.1743,1.1749,1.178,1.1805,1.1808,1.1808,1.1796,1.181,1.1815,1.1807,1.1855,1.1841,1.1846,1.1865,1.1913,1.1916,1.1918,1.1937,1.1943,1.1947,0,0,0,0,0,0,1.1735,1.1749,1.1745,1.1778,1.179,1.1802,1.1819,1.1814,1.183,1.1827,1.1826,1.1829,1.1859,1.1865,1.1848,1.1899,1.1882,1.1886,1.1894,1.19,1.1904,1.1902,1.1831,0,0,0,0,0,1.1742,1.1762,1.1773,1.1801,1.1807,1.1812,1.1823,1.1822,1.1835,1.184,1.1847,1.1859,1.1877,1.1889,1.1906,1.194,1.1943,1.1955,1.196,1.1963,1.1966,1.1985,1.1991,1.1929,1.1929,1.1929,0,0,1.1757,1.1767,1.1779,1.1804,1.1813,1.1834,1.1817,1.1838,1.1853,1.1843,1.187,1.1876,1.189,1.1921,1.1935,1.1927,1.1985,1.1967,1.1969,1.1971,1.1989,1.1995,1.2,1.1931,1.193,1.193,0,0,1.1795,1.1804,1.1829,1.1839,1.1854,1.1858,1.1864,1.1877,1.1881,1.1909,1.1902,1.1919,1.195,1.196,1.1969,1.2012,1.2005,1.2017,1.204,1.2058,1.2063,1.2067,1.2083,1.2088,1.2021,1.2021,1.2021,0,1.1811,1.1842,1.1842,1.1865,1.1876,1.1869,1.1894,1.1903,1.1923,1.193,1.1921,1.196,1.1969,1.2003,1.2013,1.2021,1.2028,1.2016,1.2062,1.2067,1.2071,1.2085,1.2091,1.2022,1.2022,1.2022,1.2022,0,1.1861,1.1883,1.1901,1.1921,1.1934,1.1957,1.1961,1.1975,1.1973,1.1977,1.2006,1.2016,1.2035,1.2043,1.2041,1.2077,1.2072,1.2062,1.2045,1.2078,1.2092,1.2097,1.2024,1.2024,1.2023,1.2023,0,0,1.1908,1.193,1.1936,1.1946,1.1962,1.1978,1.2002,1.2021,1.2033,1.2047,1.2066,1.2093,1.2085,1.2096,1.2095,1.2111,1.2145,1.21,1.21,1.2108,1.2185,1.2192,1.2198,1.2141,1.2142,1.2143,1.2184,0,1.1947,1.1989,1.1991,1.2029,1.2048,1.2042,1.2063,1.2075,1.208,1.2097,1.2102,1.2122,1.2109,1.2116,1.2132,1.2137,1.216,1.2134,1.2159,1.2159,1.2155,1.2206,1.2213,1.2251,1.2189,1.219,1.2191,0,1.1998,1.2015,1.2055,1.207,1.2078,1.2096,1.2115,1.2131,1.2145,1.2148,1.216,1.2157,1.2181,1.2164,1.2196,1.2179,1.2189,1.2194,1.2195,1.2197,1.2177,1.2209,1.2264,1.2269,1.22,1.2199,1.2198,0,1.2028,1.2061,1.2089,1.2097,1.2115,1.2128,1.2136,1.2149,1.2161,1.2177,1.2185,1.2203,1.2213,1.2228,1.223,1.2217,1.2263,1.2245,1.2265,1.2265,1.2275,1.2274,1.2332,1.2282,1.2282,1.2282,1.2282,0,1.2071,1.2096,1.2103,1.2121,1.2148,1.215,1.2177,1.2184,1.2196,1.2215,1.221,1.2228,1.223,1.2248,1.225,1.2277,1.2281,1.2284,1.2284,1.2284,1.2284,1.229,1.2287,1.2283,1.2283,1.2283,1.2282,0,1.211,1.2116,1.2146,1.2161,1.2165,1.2185,1.2197,1.2214,1.2219,1.2243,1.2248,1.2256,1.2277,1.2281,1.2305,1.2306,1.2339,1.2336,1.2334,1.2334,1.2354,1.2352,1.2417,1.2426,1.2371,1.2371,1.2372,0,1.2137,1.2156,1.2173,1.2186,1.2194,1.2214,1.2227,1.223,1.2243,1.2261,1.2275,1.2296,1.2313,1.2346,1.2354,1.2373,1.2371,1.2392,1.2373,1.2373,1.2371,1.237,1.2372,1.2396,1.2396,1.2397,1.2397,0,1.2184,1.2186,1.2205,1.2225,1.224,1.2255,1.227,1.228,1.2285,1.23,1.2322,1.2335,1.2361,1.2381,1.24,1.2408,1.2404,1.2403,1.2409,1.2409,1.2407,1.2409,1.2344,1.2402,1.2401,1.2401,1.2401,1.24,1.2217,1.2234,1.2249,1.227,1.2282,1.2296,1.2313,1.232,1.2339,1.236,1.2361,1.2385,1.2399,1.2424,1.2433,1.2452,1.2445,1.2453,1.2455,1.2457,1.2459,1.2405,1.2455,1.2455,1.2455,1.2455,1.2455,0,1.2264,1.2274,1.2293,1.2315,1.2331,1.2327,1.2343,1.2357,1.2378,1.2392,1.2409,1.2435,1.2455,1.2464,1.2484,1.2497,1.2496,1.2503,1.2501,1.2503,1.2464,1.2457,1.2504,1.2504,1.2504,1.2504,1.2504,1.2504,1.2291,1.2319,1.2323,1.2358,1.2367,1.2391,1.2401,1.2414,1.2425,1.2454,1.2471,1.2478,1.249,1.2511,1.253,1.2532,1.2539,1.2547,1.2548,1.2511,1.2506,1.2501,1.2495,1.2549,1.2549,1.2586,1.2587,1.2587]}]]